Location: Long Geng
(2.6167°N, 114.1333°E)
Time: 20:04:18
(UTC+00:00)

ARIANE 5 R/B - Pass Details

Date: 14 May 2021
Orbit: 665 x 35800 km, 3.9° (Epoch: 16 June)

Event Time Altitude Azimuth Distance (km) Brightness Sun altitude
Exits shadow 20:58:39 23° 261° (W) 3,159 5.5 -18.3°
Maximum altitude 21:04:08 75° 179° (S) 999 3.5 -17.0°
Drops below altitude 10° 21:08:04 10° 93° (E) 2,125 6.4 -16.1°
Sets 21:09:48 0° 90° (E) 2,977 7.4 -15.6°
